Location: Newark
(35.8833°N, 14.5000°E)
Time: 03:49:20
(UTC+00:00)

Explorer 7 - All Passes

Search period start: 22 November 2019 00:00
Search period end: 02 December 2019 00:00
Orbit: 485 x 680 km, 50.3° (Epoch: 21 November)

Date Brightness Start Highest point End Pass type
(mag) Time Alt. Az. Time Alt. Az. Time Alt. Az.
22 Nov - 01:05:35 10° NNW 01:07:14 12° N 01:08:52 10° NNE night (unlit)
22 Nov - 02:46:02 10° NNW 02:49:11 20° NNE 02:52:11 10° ENE visible
22 Nov - 04:26:05 10° NW 04:30:12 87° SW 04:34:03 10° SE visible
22 Nov - 20:04:18 10° SSW 20:08:35 31° SE 20:12:45 10° ENE night (unlit)
22 Nov - 21:44:29 10° WSW 21:49:05 45° NNW 21:53:30 10° NE night (unlit)
22 Nov - 23:27:46 10° NW 23:30:33 16° NNW 23:33:15 10° NNE night (unlit)
23 Nov - 01:10:43 10° NNW 01:12:38 13° N 01:14:30 10° NNE night (unlit)
23 Nov - 02:50:45 10° NNW 02:54:24 27° NNE 02:57:50 10° E visible
23 Nov - 04:31:09 10° WNW 04:35:05 47° SW 04:38:48 10° SSE visible
23 Nov - 20:08:42 10° SSW 20:13:26 52° SE 20:18:00 10° ENE night (unlit)
23 Nov - 21:49:56 10° W 21:54:12 31° NNW 21:58:18 10° NE night (unlit)
23 Nov - 23:33:36 10° NW 23:35:53 14° N 23:38:09 10° NNE night (unlit)
24 Nov - 01:15:36 10° NNW 01:18:00 14° NNE 01:20:20 10° NE night (unlit)
24 Nov - 02:55:32 10° NW 02:59:32 40° NNE 03:03:18 10° ESE visible
24 Nov - 04:36:28 10° WNW 04:39:53 26° SW 04:43:09 10° S visible
24 Nov - 18:35:57 10° SSE 18:38:14 13° SE 18:40:30 10° E night (unlit)
24 Nov - 20:13:27 10° SW 20:18:20 86° SE 20:23:03 10° NE night (unlit)
24 Nov - 21:55:33 10° WNW 21:59:22 23° NNW 22:03:04 10° NNE night (unlit)
24 Nov - 23:39:17 10° NNW 23:41:17 13° N 23:43:14 10° NNE night (unlit)
25 Nov - 01:20:22 10° NNW 01:23:20 17° NNE 01:26:10 10° ENE night (unlit)
25 Nov - 03:00:22 10° NW 03:04:35 65° NE 03:08:31 10° ESE visible
25 Nov - 04:42:20 10° W 04:44:36 15° SW 04:46:49 10° SSW visible
25 Nov - 18:39:10 10° S 18:42:58 23° SE 18:46:42 10° ENE visible
25 Nov - 20:18:29 10° WSW 20:23:18 61° NW 20:27:58 10° NE night (unlit)
25 Nov - 22:01:18 10° WNW 22:04:37 18° NNW 22:07:51 10° NNE night (unlit)
25 Nov - 23:44:41 10° NNW 23:46:41 13° N 23:48:39 10° NNE night (unlit)
26 Nov - 01:25:06 10° NNW 01:28:36 23° NNE 01:31:55 10° ENE night (unlit)
26 Nov - 03:05:19 10° NW 03:09:32 73° SW 03:13:28 10° SE visible
26 Nov - 18:43:15 10° SSW 18:47:45 37° SE 18:52:10 10° ENE visible
26 Nov - 20:23:46 10° WSW 20:28:22 40° NNW 20:32:48 10° NE night (unlit)
26 Nov - 22:07:07 10° NW 22:09:56 15° NNW 22:12:41 10° NNE night (unlit)
26 Nov - 23:49:45 10° NNW 23:52:04 14° N 23:54:19 10° NE night (unlit)
27 Nov - 01:29:52 10° NW 01:33:47 31° NNE 01:37:29 10° E night (unlit)
27 Nov - 03:10:27 10° WNW 03:14:23 40° SW 03:18:07 10° SSE visible
27 Nov - 18:47:46 10° SW 18:52:36 62° SE 18:57:21 10° ENE visible
27 Nov - 20:29:15 10° W 20:33:29 29° NNW 20:37:36 10° NNE night (unlit)
27 Nov - 22:12:54 10° NW 22:15:18 14° N 22:17:40 10° NNE night (unlit)
27 Nov - 23:54:38 10° NNW 23:57:26 16° NNE 00:00:07 10° NE night (unlit)
28 Nov - 01:34:39 10° NW 01:38:54 47° NE 01:42:52 10° ESE night (unlit)
28 Nov - 03:15:52 10° WNW 03:19:10 23° SW 03:22:19 10° S visible
28 Nov - 17:14:25 10° SSE 17:17:22 16° SE 17:20:19 10° E visible
28 Nov - 18:52:37 10° SW 18:57:32 83° NW 19:02:21 10° NE visible
28 Nov - 20:34:55 10° WNW 20:38:42 22° NNW 20:42:23 10° NNE night (unlit)
28 Nov - 22:18:29 10° NNW 22:20:42 13° N 22:22:52 10° NNE night (unlit)
28 Nov - 23:59:25 10° NNW 00:02:44 20° NNE 00:05:55 10° ENE night (unlit)
29 Nov - 01:39:32 10° NW 01:43:55 78° NE 01:48:00 10° SE night (unlit)
29 Nov - 03:22:02 10° W 03:23:52 13° SW 03:25:39 10° SSW night (unlit)
29 Nov - 17:18:01 10° S 17:22:06 27° SE 17:26:10 10° ENE visible
29 Nov - 18:57:44 10° WSW 19:02:32 54° NW 19:07:15 10° NE visible
29 Nov - 20:40:41 10° WNW 20:43:59 18° NNW 20:47:11 10° NNE night (unlit)
29 Nov - 22:23:46 10° NNW 22:26:06 13° N 22:28:21 10° NE night (unlit)
30 Nov - 00:04:10 10° NNW 00:07:59 26° NNE 00:11:35 10° E night (unlit)
30 Nov - 01:44:31 10° WNW 01:48:51 61° SW 01:52:52 10° SE night (unlit)
30 Nov - 17:22:16 10° SSW 17:26:54 44° SE 17:31:31 10° ENE visible
30 Nov - 19:03:04 10° W 19:07:36 37° NNW 19:12:03 10° NE visible
30 Nov - 20:46:28 10° NW 20:49:18 15° NNW 20:52:05 10° NNE night (unlit)
30 Nov - 22:28:48 10° NNW 22:31:28 15° N 22:34:04 10° NE night (unlit)
01 Dec - 00:08:57 10° NW 00:13:08 36° NNE 00:17:05 10° E night (unlit)
01 Dec - 01:49:43 10° WNW 01:53:40 34° SW 01:57:23 10° SSE night (unlit)
01 Dec - 15:50:41 10° SE 15:51:49 11° SE 15:52:57 10° ESE daylight
01 Dec - 17:26:53 10° SW 17:31:46 73° SE 17:36:38 10° NE visible
01 Dec - 19:08:37 10° W 19:12:46 27° NNW 19:16:51 10° NNE visible
01 Dec - 20:52:10 10° NW 20:54:41 14° N 20:57:08 10° NNE night (unlit)
01 Dec - 22:33:40 10° NNW 22:36:49 18° NNE 22:39:51 10° ENE night (unlit)
